Weather History for Sparta, WI

Change the Weather History Date:

Monday, February 18, 2013

  Actual Average Record
Temperature  
Mean Temperature 29 °F -  
Max Temperature 39 °F 31 °F 61 °F (1981)
Min Temperature 19 °F 14 °F -25 °F (2006)
Degree Days  
Heating Degree Days 36    
Moisture  
Dew Point 25 °F    
Average Humidity 78    
Maximum Humidity 93    
Minimum Humidity 65    
Precipitation  
Precipitation 0.00 in - - ()
Sea Level Pressure  
Sea Level Pressure 29.60 in    
Wind  
Wind Speed 9 mph (SW)    
Max Wind Speed 15 mph    
Max Gust Speed 23 mph    
Visibility 9 miles    
Events Rain , Snow    
Averages and records for this station are not official NWS values.
T = Trace of Precipitation, MM = Missing Value Source: NWS Daily Summary

Daily Weather History Graph

Daily Weather History Graph

Search for Another Location

Airport:

Trip Planner

Search our weather history database for the weather conditions in past years. The results will help you decide how hot, cold, wet, or windy it might be!

Date:

Astronomy

Feb. 18, 2013 Rise Set
Actual Time 6:57 AM CST 5:37 PM CST
Civil Twilight 6:27 AM CST 6:06 PM CST
Nautical Twilight 5:54 AM CST 6:40 PM CST
Astronomical Twilight 5:20 AM CST 7:13 PM CST
Moon 11:17 AM CST (2/18) 1:42 AM CST (2/18)
Length of Visible Light 11h 38m
Length of Day
10h 40m
First Quarter, 58% of the Moon is Illuminated
Feb 18
First Quarter
Feb 25
Full
Mar 4
Last Quarter
Mar 11
New
Mar 19
First Quarter

Hourly Weather History & Observations

Time (CST) Temp. Windchill Dew Point Humidity Pressure Visibility Wind Dir Wind Speed Gust Speed Precip Events Conditions
12:15 AM 30.2 °F 20.2 °F 21.2 °F 69% 29.80 in 10.0 mi SSE 12.7 mph 23.0 mph N/A   Clear
12:35 AM 30.2 °F 21.9 °F 21.2 °F 69% 29.78 in 10.0 mi SSE 9.2 mph 16.1 mph N/A   Clear
12:55 AM 30.2 °F 19.3 °F 21.2 °F 69% 29.76 in 10.0 mi South 15.0 mph 19.6 mph N/A   Clear
1:15 AM 30.2 °F 21.3 °F 21.2 °F 69% 29.75 in 10.0 mi SSE 10.4 mph 19.6 mph N/A   Clear
1:35 AM 30.2 °F 20.2 °F 21.2 °F 69% 29.73 in 10.0 mi SSE 12.7 mph 18.4 mph N/A   Clear
1:55 AM 30.2 °F 20.2 °F 21.2 °F 69% 29.72 in 10.0 mi SSE 12.7 mph 17.3 mph N/A   Clear
2:15 AM 30.2 °F 22.6 °F 21.2 °F 69% 29.71 in 10.0 mi SSE 8.1 mph - N/A   Clear
2:35 AM 30.2 °F 21.3 °F 23.0 °F 75% 29.70 in 10.0 mi SSE 10.4 mph - N/A   Clear
2:55 AM 30.2 °F 21.9 °F 23.0 °F 75% 29.69 in 10.0 mi SSE 9.2 mph - N/A   Clear
3:15 AM 30.2 °F 21.9 °F 23.0 °F 75% 29.67 in 10.0 mi SSE 9.2 mph - N/A   Clear
3:35 AM 32.0 °F 24.8 °F 23.0 °F 69% 29.67 in 10.0 mi South 8.1 mph - N/A   Clear
3:55 AM 30.2 °F 23.4 °F 23.0 °F 75% 29.66 in 10.0 mi South 6.9 mph - N/A   Clear
4:15 AM 30.2 °F 22.6 °F 23.0 °F 75% 29.65 in 10.0 mi South 8.1 mph - N/A   Clear
4:35 AM 30.2 °F 24.3 °F 23.0 °F 75% 29.65 in 10.0 mi South 5.8 mph - N/A   Clear
4:55 AM 32.0 °F 24.8 °F 23.0 °F 69% 29.64 in 10.0 mi South 8.1 mph - N/A   Clear
5:15 AM 30.2 °F 25.4 °F 23.0 °F 75% 29.64 in 10.0 mi South 4.6 mph - N/A   Clear
5:35 AM 32.0 °F 24.8 °F 24.8 °F 75% 29.62 in 10.0 mi SSE 8.1 mph - N/A   Clear
5:55 AM 32.0 °F - 24.8 °F 75% 29.62 in 10.0 mi Calm Calm - N/A   Clear
6:15 AM 32.0 °F - 24.8 °F 75% 29.61 in 10.0 mi Calm Calm - N/A   Clear
6:35 AM 32.0 °F 28.7 °F 24.8 °F 75% 29.60 in 10.0 mi South 3.5 mph - N/A   Clear
6:55 AM 32.0 °F 28.7 °F 24.8 °F 75% 29.60 in 10.0 mi SSE 3.5 mph - N/A   Clear
7:15 AM 32.0 °F 26.4 °F 24.8 °F 75% 29.60 in 10.0 mi South 5.8 mph - N/A   Clear
7:35 AM 32.0 °F 28.7 °F 26.6 °F 80% 29.60 in 10.0 mi SW 3.5 mph - N/A   Clear
7:55 AM 32.0 °F 24.8 °F 26.6 °F 80% 29.60 in 10.0 mi South 8.1 mph - N/A   Clear
8:15 AM 32.0 °F 27.5 °F 26.6 °F 80% 29.60 in 10.0 mi South 4.6 mph - N/A   Clear
8:35 AM 32.0 °F 24.8 °F 26.6 °F 80% 29.58 in 10.0 mi SSW 8.1 mph - N/A   Clear
8:55 AM 33.8 °F 28.6 °F 26.6 °F 75% 29.58 in 10.0 mi South 5.8 mph - N/A   Clear
9:15 AM 33.8 °F 29.6 °F 26.6 °F 75% 29.57 in 10.0 mi South 4.6 mph - N/A   Clear
9:35 AM 33.8 °F 27.7 °F 26.6 °F 75% 29.57 in 10.0 mi South 6.9 mph - N/A   Clear
9:55 AM 35.6 °F 29.2 °F 28.4 °F 75% 29.56 in 10.0 mi SSW 8.1 mph - N/A   Clear
10:15 AM 35.6 °F 31.7 °F 28.4 °F 75% 29.55 in 10.0 mi SSW 4.6 mph - N/A   Clear
10:35 AM 35.6 °F 28.6 °F 28.4 °F 75% 29.55 in 10.0 mi South 9.2 mph - N/A   Clear
10:55 AM 37.4 °F 31.4 °F 28.4 °F 70% 29.56 in 10.0 mi South 8.1 mph - N/A   Clear
11:15 AM 37.4 °F 30.8 °F 28.4 °F 70% 29.56 in 10.0 mi SSW 9.2 mph - N/A   Clear
11:35 AM 37.4 °F 32.8 °F 28.4 °F 70% 29.55 in 10.0 mi SSW 5.8 mph - N/A   Clear
11:55 AM 37.4 °F 34.9 °F 28.4 °F 70% 29.54 in 10.0 mi SW 3.5 mph - N/A   Scattered Clouds
12:15 PM 37.4 °F 33.8 °F 28.4 °F 70% 29.53 in 10.0 mi SW 4.6 mph - N/A   Scattered Clouds
12:35 PM 37.4 °F 33.8 °F 28.4 °F 70% 29.52 in 10.0 mi SW 4.6 mph - N/A   Clear
12:55 PM 37.4 °F 31.4 °F 28.4 °F 70% 29.51 in 10.0 mi West 8.1 mph - N/A   Clear
1:15 PM 39.2 °F 35.0 °F 28.4 °F 65% 29.51 in 10.0 mi West 5.8 mph - N/A   Clear
1:35 PM 39.2 °F 34.2 °F 28.4 °F 65% 29.51 in 10.0 mi West 6.9 mph - N/A   Scattered Clouds
1:55 PM 37.4 °F 32.1 °F 28.4 °F 70% 29.51 in 10.0 mi West 6.9 mph - N/A   Mostly Cloudy
2:15 PM 37.4 °F 32.1 °F 30.2 °F 75% 29.52 in 10.0 mi West 6.9 mph - N/A   Overcast
2:35 PM 37.4 °F 30.3 °F 30.2 °F 75% 29.53 in 10.0 mi West 10.4 mph - N/A   Overcast
2:55 PM 37.4 °F 32.1 °F 30.2 °F 75% 29.53 in 10.0 mi West 6.9 mph - N/A   Overcast
3:15 PM 37.4 °F 32.1 °F 30.2 °F 75% 29.53 in 10.0 mi West 6.9 mph - N/A   Overcast
3:35 PM 35.6 °F 28.6 °F 30.2 °F 81% 29.53 in 10.0 mi West 9.2 mph - N/A   Mostly Cloudy
3:55 PM 35.6 °F 28.6 °F 32.0 °F 87% 29.53 in 10.0 mi West 9.2 mph - N/A   Light Drizzle
4:15 PM 33.8 °F 30.8 °F 32.0 °F 93% 29.53 in 7.0 mi West 3.5 mph - N/A Rain Light Rain
4:35 PM 33.8 °F 29.6 °F 32.0 °F 93% 29.53 in 10.0 mi WNW 4.6 mph - N/A   Mostly Cloudy
4:55 PM 33.8 °F 25.8 °F 32.0 °F 93% 29.53 in 5.0 mi West 10.4 mph 16.1 mph N/A   Overcast
5:15 PM 32.0 °F 21.6 °F 30.2 °F 93% 29.53 in 5.0 mi WNW 15.0 mph 21.9 mph N/A   Overcast
5:35 PM 32.0 °F 24.2 °F 28.4 °F 87% 29.55 in 5.0 mi West 9.2 mph 21.9 mph N/A Snow Light Snow
5:55 PM 32.0 °F 23.6 °F 28.4 °F 87% 29.56 in 5.0 mi West 10.4 mph 16.1 mph N/A Snow Light Snow
6:15 PM 30.2 °F 21.3 °F 26.6 °F 86% 29.57 in 7.0 mi West 10.4 mph 17.3 mph N/A Snow Light Snow
6:35 PM 30.2 °F 21.3 °F 26.6 °F 86% 29.58 in 7.0 mi West 10.4 mph 17.3 mph N/A   Mostly Cloudy
6:55 PM 28.4 °F 19.1 °F 24.8 °F 86% 29.59 in 10.0 mi West 10.4 mph 18.4 mph N/A Snow Light Snow
7:15 PM 28.4 °F 19.1 °F 23.0 °F 80% 29.59 in 10.0 mi West 10.4 mph 18.4 mph N/A Snow Light Snow
7:35 PM 26.6 °F 16.2 °F 21.2 °F 80% 29.58 in 10.0 mi West 11.5 mph 20.7 mph N/A Snow Light Snow
7:55 PM 26.6 °F 15.7 °F 19.4 °F 74% 29.57 in 10.0 mi West 12.7 mph 19.6 mph N/A   Overcast
8:15 PM 24.8 °F 12.9 °F 19.4 °F 80% 29.58 in 10.0 mi West 13.8 mph 19.6 mph N/A   Overcast
8:35 PM 23.0 °F 12.4 °F 19.4 °F 86% 29.58 in 10.0 mi West 10.4 mph - N/A   Overcast
8:55 PM 23.0 °F 11.1 °F 17.6 °F 80% 29.59 in 10.0 mi West 12.7 mph 17.3 mph N/A   Overcast
9:15 PM 23.0 °F 12.4 °F 17.6 °F 80% 29.60 in 10.0 mi West 10.4 mph 18.4 mph N/A   Overcast
9:35 PM 21.2 °F 10.9 °F 15.8 °F 80% 29.60 in 10.0 mi West 9.2 mph - N/A   Overcast
9:55 PM 21.2 °F 12.6 °F 17.6 °F 86% 29.61 in 10.0 mi West 6.9 mph - N/A   Mostly Cloudy
10:15 PM 19.4 °F 10.4 °F 17.6 °F 93% 29.61 in 5.0 mi West 6.9 mph - N/A   Overcast
10:35 PM 19.4 °F 8.6 °F 17.6 °F 93% 29.62 in 7.0 mi West 9.2 mph 16.1 mph N/A   Overcast
10:55 PM 19.4 °F 8.6 °F 17.6 °F 93% 29.63 in 5.0 mi West 9.2 mph 16.1 mph N/A   Overcast
11:15 PM 19.4 °F 7.9 °F 17.6 °F 93% 29.63 in 5.0 mi West 10.4 mph - N/A Snow Light Snow
11:35 PM 19.4 °F 9.5 °F 17.6 °F 93% 29.63 in 5.0 mi West 8.1 mph - N/A Snow Light Snow
11:55 PM 19.4 °F 7.2 °F 15.8 °F 86% 29.64 in 5.0 mi WNW 11.5 mph 18.4 mph N/A Snow Light Snow